[[{"header":{"parameterUnit":"m.s-1","parameterCategory":1,"la1":30.2991,"la2":30.254,"lo1":-89.0895,"lo2":-89.0444,"dy":0.0017,"dx":0.0017,"nx":28,"ny":28,"refTime":"2025-02-28T03:00:00:Z","depth":0,"parameterNumber":2,"parameterNumberName":"U-component_of_WINDS"},"data":[0,0,0,0,0,0,0,0,0,0,0,0,0,0,0,0,0,0,0,0,0,0,0,0,0,0,0,0,0,0,0,0,0,0,0,0,0,0,0,0,0,0,0,0,0,0,0,0,0,0,0,0,0,0,0,0,0,0,1.1531,1.153,0,1.1471,1.147,1.1469,1.1412,1.1411,1.141,1.141,1.135,1.1349,1.1348,0,0,0,0,0,0,0,0,0,0,0,0,0,1.16,1.1599,1.1531,1.153,1.1529,1.1471,1.147,1.1469,1.1412,1.1411,1.141,1.1409,1.135,1.1349,1.1348,0,0,0,0,0,0,0,0,0,0,0,0,0,1.1558,1.1598,1.1531,1.1494,1.149,1.1471,1.147,1.1469,1.1412,1.1411,1.141,1.1409,1.135,1.1349,1.1348,1.1361,0,0,1.1343,1.1343,0,0,0,0,0,0,0,0,1.156,1.1555,1.15,1.1496,1.1492,1.1448,1.1472,1.1433,1.1412,1.1442,1.141,1.1408,1.1383,1.1379,1.137,1.1358,1.1356,1.1343,1.1342,1.1342,1.1341,0,0,0,0,0,0,0,1.1563,1.1557,1.1507,1.1499,1.1494,1.1481,1.1474,1.1464,1.1419,1.1439,1.1435,1.1428,1.1381,1.1372,1.1368,1.1355,1.1343,1.1342,1.1341,1.1341,1.1354,1.1355,0,0,0,0,0,0,1.1571,1.156,1.1509,1.1505,1.1524,1.1481,1.1473,1.1463,1.1419,1.1412,1.1429,1.1426,1.1375,1.137,1.1366,1.138,1.1342,1.1341,1.134,1.1353,1.1354,1.1356,0,0,0,0,0,0,1.1573,1.1567,1.1511,1.1531,1.1523,1.1481,1.147,1.1462,1.1453,1.1412,1.1404,1.1428,1.1374,1.1368,1.1363,1.1378,1.134,1.1339,1.1351,1.1353,1.1355,1.1409,0,0,0,0,0,0,1.1575,1.1568,1.1572,1.1532,1.1522,1.1508,1.1471,1.1462,1.1451,1.1446,1.1409,1.1401,1.1372,1.1366,1.1362,1.1375,1.1338,1.135,1.1352,1.1354,1.1405,1.1412,1.1418,0,0,0,0,0,1.1578,1.1589,1.1572,1.1566,1.1526,1.1509,1.1504,1.147,1.1452,1.1456,1.143,1.1403,1.1377,1.1366,1.1361,1.1374,1.1349,1.1352,1.1354,1.1403,1.1411,1.1418,0,0,0,0,0,0,1.1631,1.1583,1.1564,1.1562,1.154,1.15,1.1503,1.1479,1.1462,1.1458,1.1417,1.1409,1.141,1.1391,1.138,1.1386,1.1359,1.1361,1.1398,1.1405,1.1411,1.1415,1.1336,0,0,0,0,0,1.1642,1.1632,1.1591,1.1593,1.1584,1.1546,1.1537,1.1513,1.1489,1.1479,1.1453,1.1431,1.1419,1.1411,1.1397,1.1403,1.1395,1.141,1.1416,1.1421,1.1423,1.1428,1.1434,1.1364,1.1364,1.1364,0,0,1.1666,1.1638,1.1634,1.1603,1.1584,1.1575,1.1538,1.153,1.1524,1.1478,1.1472,1.1453,1.1426,1.1428,1.1427,1.1413,1.1441,1.1425,1.1429,1.1428,1.1431,1.1438,1.1444,1.1366,1.1366,1.1365,0,0,1.1704,1.1682,1.1682,1.1664,1.1635,1.161,1.1611,1.1575,1.156,1.1554,1.152,1.1513,1.1491,1.1474,1.1463,1.15,1.1474,1.1496,1.1528,1.1533,1.1539,1.1543,1.1558,1.1563,1.1499,1.1499,1.1499,0,1.1737,1.1722,1.1686,1.1681,1.1669,1.1629,1.163,1.1614,1.1583,1.1576,1.1561,1.1535,1.1513,1.1512,1.1521,1.1513,1.1513,1.15,1.1541,1.1545,1.1549,1.1562,1.1568,1.1502,1.1501,1.1501,1.1501,0,1.1765,1.1755,1.176,1.1731,1.172,1.1718,1.1683,1.1677,1.1655,1.1633,1.1629,1.1603,1.1584,1.1582,1.1559,1.1578,1.157,1.1548,1.152,1.1559,1.1571,1.1576,1.1506,1.1505,1.1504,1.1503,0,0,1.1832,1.1785,1.1788,1.1775,1.1742,1.1735,1.1733,1.1714,1.1711,1.1691,1.1689,1.1674,1.1655,1.1642,1.1618,1.1622,1.1655,1.16,1.1599,1.1612,1.1676,1.1693,1.1699,1.1639,1.164,1.164,1.1679,0,1.1865,1.1858,1.1827,1.183,1.1822,1.1785,1.1784,1.1764,1.1744,1.1736,1.1714,1.1704,1.1679,1.1671,1.1674,1.1651,1.1668,1.1648,1.1638,1.1638,1.1645,1.1705,1.1721,1.1758,1.1683,1.1684,1.1684,0,1.1902,1.1886,1.1888,1.1858,1.1853,1.1852,1.1835,1.1827,1.1805,1.1791,1.1779,1.1752,1.175,1.1725,1.1722,1.1709,1.1704,1.1693,1.1694,1.1691,1.1663,1.1704,1.1769,1.1775,1.1691,1.169,1.169,0,1.1952,1.1931,1.193,1.1921,1.1885,1.1886,1.1871,1.1849,1.1841,1.1826,1.1821,1.1806,1.1798,1.1788,1.176,1.1744,1.1761,1.1733,1.175,1.1751,1.1754,1.1754,1.182,1.1751,1.1751,1.1751,1.1751,0,1.1992,1.1995,1.1953,1.1952,1.1955,1.1922,1.1926,1.1908,1.1889,1.1885,1.1853,1.1851,1.1813,1.1807,1.1785,1.1788,1.1784,1.1773,1.1767,1.1776,1.1778,1.1771,1.1768,1.1753,1.1752,1.1752,1.1752,0,1.2048,1.202,1.2017,1.1984,1.1977,1.1981,1.1953,1.1952,1.1932,1.1928,1.1925,1.1893,1.1885,1.1856,1.184,1.1826,1.1835,1.1823,1.1842,1.1838,1.1857,1.1856,1.1921,1.1928,1.1855,1.1856,1.1857,0,1.2076,1.2077,1.2046,1.2041,1.2029,1.2021,1.2014,1.1982,1.1975,1.1953,1.1955,1.1945,1.1934,1.1923,1.1899,1.1887,1.1875,1.1899,1.1873,1.1883,1.1877,1.1877,1.1878,1.1904,1.1905,1.1906,1.1907,0,1.2128,1.2114,1.2104,1.209,1.2082,1.207,1.2055,1.2054,1.2018,1.2013,1.2004,1.1997,1.1982,1.1972,1.1957,1.1944,1.192,1.1915,1.1919,1.1927,1.1939,1.1934,1.1858,1.1914,1.1913,1.1912,1.1912,1.1912,1.217,1.2171,1.215,1.2141,1.2127,1.2115,1.2113,1.2094,1.2086,1.2071,1.2053,1.2047,1.2029,1.2007,1.1995,1.1991,1.1978,1.1983,1.1984,1.1985,1.199,1.194,1.1988,1.1988,1.1988,1.1988,1.1988,0,1.2221,1.2207,1.2199,1.218,1.2174,1.2153,1.2137,1.2133,1.2128,1.2113,1.2104,1.2096,1.2087,1.2064,1.2053,1.2054,1.2044,1.2053,1.2052,1.205,1.2002,1.2,1.2062,1.2062,1.2062,1.2062,1.2062,1.2062,1.2247,1.2248,1.2233,1.2227,1.2213,1.2207,1.22,1.219,1.2177,1.2169,1.2162,1.2147,1.2129,1.2118,1.211,1.2103,1.2101,1.2114,1.2104,1.206,1.2053,1.2046,1.2044,1.2114,1.2114,1.2152,1.2152,1.2153]},{"header":{"parameterUnit":"m.s-1","parameterCategory":1,"la1":30.2991,"la2":30.254,"lo1":-89.0895,"lo2":-89.0444,"dy":0.0017,"dx":0.0017,"nx":28,"ny":28,"refTime":"2025-02-28T03:00:00:Z","depth":0,"parameterNumber":3,"parameterNumberName":"V-component_of_WINDS"},"data":[0,0,0,0,0,0,0,0,0,0,0,0,0,0,0,0,0,0,0,0,0,0,0,0,0,0,0,0,0,0,0,0,0,0,0,0,0,0,0,0,0,0,0,0,0,0,0,0,0,0,0,0,0,0,0,0,0,0,-0.1978,-0.1978,0,-0.1958,-0.1958,-0.1958,-0.1957,-0.1958,-0.1958,-0.1958,-0.1937,-0.1937,-0.1936,0,0,0,0,0,0,0,0,0,0,0,0,0,-0.2018,-0.2017,-0.1978,-0.1978,-0.1978,-0.1958,-0.1958,-0.1958,-0.1957,-0.1958,-0.1958,-0.1958,-0.1938,-0.1937,-0.1936,0,0,0,0,0,0,0,0,0,0,0,0,0,-0.2,-0.2017,-0.1978,-0.1975,-0.1975,-0.1958,-0.1958,-0.1958,-0.1957,-0.1958,-0.1958,-0.1958,-0.1938,-0.1937,-0.1936,-0.1921,0,0,-0.1932,-0.1931,0,0,0,0,0,0,0,0,-0.2001,-0.1998,-0.1976,-0.1976,-0.1975,-0.1961,-0.1964,-0.1945,-0.1957,-0.1964,-0.1958,-0.1959,-0.1945,-0.1943,-0.1938,-0.192,-0.1919,-0.1932,-0.1931,-0.1931,-0.193,0,0,0,0,0,0,0,-0.2002,-0.1999,-0.197,-0.1976,-0.1975,-0.1976,-0.1973,-0.1961,-0.1953,-0.1963,-0.1963,-0.1961,-0.1945,-0.194,-0.1938,-0.1918,-0.1932,-0.1931,-0.193,-0.193,-0.1889,-0.1888,0,0,0,0,0,0,-0.2004,-0.2,-0.1971,-0.197,-0.1989,-0.1975,-0.1972,-0.1965,-0.1953,-0.1951,-0.1961,-0.1961,-0.1941,-0.1939,-0.1937,-0.192,-0.1931,-0.193,-0.1929,-0.1889,-0.1889,-0.1888,0,0,0,0,0,0,-0.2005,-0.2001,-0.1972,-0.1985,-0.1981,-0.1973,-0.1965,-0.1964,-0.1959,-0.1951,-0.1949,-0.1957,-0.1942,-0.1939,-0.1925,-0.1919,-0.1929,-0.1928,-0.189,-0.1889,-0.1888,-0.1885,0,0,0,0,0,0,-0.2006,-0.2002,-0.1995,-0.1985,-0.1981,-0.196,-0.1965,-0.1964,-0.1957,-0.1958,-0.1947,-0.1945,-0.1942,-0.1927,-0.1924,-0.1918,-0.1927,-0.189,-0.1889,-0.1889,-0.1885,-0.1884,-0.1883,0,0,0,0,0,-0.2007,-0.1994,-0.1995,-0.1991,-0.1973,-0.1959,-0.1957,-0.1953,-0.1957,-0.1951,-0.1946,-0.1946,-0.1921,-0.1926,-0.1922,-0.1916,-0.189,-0.189,-0.1889,-0.1886,-0.1885,-0.1883,0,0,0,0,0,0,-0.2003,-0.1993,-0.1993,-0.1977,-0.1969,-0.1959,-0.1951,-0.1951,-0.1942,-0.1943,-0.1939,-0.1936,-0.1923,-0.1918,-0.1924,-0.1902,-0.1906,-0.1905,-0.1905,-0.1904,-0.1903,-0.1904,-0.1926,0,0,0,0,0,-0.2001,-0.1991,-0.1982,-0.1969,-0.1965,-0.1959,-0.1953,-0.1951,-0.1943,-0.1939,-0.1933,-0.1925,-0.1916,-0.191,-0.19,-0.1885,-0.1884,-0.1879,-0.1878,-0.1877,-0.1876,-0.1869,-0.1867,-0.1886,-0.1886,-0.1886,0,0,-0.1995,-0.1988,-0.1982,-0.1968,-0.1961,-0.1952,-0.1956,-0.1945,-0.1938,-0.1938,-0.1925,-0.192,-0.1911,-0.1897,-0.1891,-0.1893,-0.1871,-0.1876,-0.1876,-0.1875,-0.1868,-0.1866,-0.1865,-0.1885,-0.1885,-0.1885,0,0,-0.1979,-0.1973,-0.1961,-0.1956,-0.1947,-0.1943,-0.1941,-0.1932,-0.1929,-0.1916,-0.1916,-0.1908,-0.1891,-0.1886,-0.188,-0.1866,-0.1866,-0.1863,-0.1857,-0.185,-0.1849,-0.1848,-0.1843,-0.1842,-0.1862,-0.1862,-0.1862,0,-0.1973,-0.1958,-0.1955,-0.1945,-0.1939,-0.194,-0.1929,-0.1923,-0.1912,-0.1908,-0.1911,-0.1892,-0.1886,-0.1871,-0.1868,-0.1863,-0.1861,-0.1864,-0.1849,-0.1848,-0.1847,-0.1843,-0.1841,-0.1861,-0.1861,-0.1861,-0.1862,0,-0.1951,-0.1941,-0.1933,-0.1923,-0.1917,-0.1906,-0.1902,-0.1897,-0.1896,-0.1893,-0.1881,-0.1874,-0.1864,-0.1861,-0.1859,-0.1847,-0.1848,-0.185,-0.1854,-0.1845,-0.1841,-0.1839,-0.1861,-0.1861,-0.1861,-0.1861,0,0,-0.193,-0.1921,-0.1918,-0.1914,-0.1906,-0.1898,-0.1888,-0.1879,-0.1875,-0.1868,-0.186,-0.1847,-0.185,-0.1844,-0.1842,-0.1837,-0.1827,-0.184,-0.1839,-0.1838,-0.1814,-0.1812,-0.181,-0.1828,-0.1827,-0.1827,-0.1815,0,-0.1914,-0.1896,-0.1895,-0.188,-0.1871,-0.1873,-0.1865,-0.1859,-0.1857,-0.1849,-0.1847,-0.1838,-0.1841,-0.1838,-0.1833,-0.1829,-0.1822,-0.183,-0.1821,-0.182,-0.1823,-0.1808,-0.1806,-0.1795,-0.1813,-0.1813,-0.1813,0,-0.1892,-0.1885,-0.1869,-0.1864,-0.186,-0.1853,-0.1846,-0.1839,-0.1833,-0.1832,-0.1827,-0.1827,-0.1818,-0.1823,-0.1812,-0.1817,-0.1814,-0.1812,-0.1811,-0.181,-0.1816,-0.1807,-0.1791,-0.1789,-0.181,-0.181,-0.181,0,-0.1879,-0.1866,-0.1855,-0.1852,-0.1845,-0.184,-0.1837,-0.1832,-0.1828,-0.1822,-0.1819,-0.1812,-0.1808,-0.1803,-0.1801,-0.1805,-0.179,-0.1795,-0.1789,-0.1789,-0.1785,-0.1785,-0.1769,-0.1783,-0.1783,-0.1783,-0.1783,0,-0.1861,-0.1851,-0.185,-0.1843,-0.1833,-0.1832,-0.1822,-0.182,-0.1816,-0.1809,-0.181,-0.1804,-0.1803,-0.1797,-0.1796,-0.1787,-0.1785,-0.1784,-0.1784,-0.1784,-0.1784,-0.1781,-0.1781,-0.1783,-0.1783,-0.1783,-0.1783,0,-0.1844,-0.1843,-0.1831,-0.1827,-0.1826,-0.1818,-0.1815,-0.1809,-0.1807,-0.1799,-0.1797,-0.1795,-0.1788,-0.1787,-0.1778,-0.1778,-0.1767,-0.1768,-0.1769,-0.1769,-0.1764,-0.1764,-0.1744,-0.1742,-0.1758,-0.1758,-0.1758,0,-0.1832,-0.1825,-0.1821,-0.1817,-0.1814,-0.1807,-0.1803,-0.1803,-0.1799,-0.1793,-0.1788,-0.1782,-0.1776,-0.1766,-0.1763,-0.1758,-0.1758,-0.1752,-0.1757,-0.1758,-0.1758,-0.1759,-0.1759,-0.175,-0.175,-0.175,-0.175,0,-0.1812,-0.1812,-0.1806,-0.1801,-0.1796,-0.1791,-0.1787,-0.1784,-0.1783,-0.1779,-0.1772,-0.1768,-0.1761,-0.1755,-0.175,-0.1747,-0.1749,-0.1748,-0.1747,-0.1746,-0.1748,-0.1747,-0.1766,-0.1749,-0.1749,-0.1749,-0.1749,-0.1749,-0.1797,-0.1792,-0.1788,-0.1782,-0.1779,-0.1776,-0.1771,-0.1769,-0.1764,-0.1758,-0.1759,-0.1752,-0.1749,-0.1742,-0.1739,-0.1734,-0.1736,-0.1734,-0.1733,-0.1733,-0.1732,-0.1749,-0.1733,-0.1733,-0.1734,-0.1734,-0.1734,0,-0.1777,-0.1776,-0.177,-0.1765,-0.1761,-0.1764,-0.176,-0.1756,-0.175,-0.1747,-0.1742,-0.1736,-0.1731,-0.1729,-0.1724,-0.1721,-0.1721,-0.1719,-0.172,-0.1719,-0.1731,-0.1733,-0.1719,-0.1719,-0.1719,-0.1719,-0.1719,-0.1719,-0.1766,-0.1757,-0.1758,-0.1748,-0.1747,-0.174,-0.1738,-0.1735,-0.1733,-0.1726,-0.1722,-0.1721,-0.1719,-0.1715,-0.1711,-0.171,-0.1709,-0.1706,-0.1706,-0.1717,-0.1718,-0.172,-0.1721,-0.1706,-0.1706,-0.1695,-0.1695,-0.1695]}]]